This is the latest recevied weather packets stored in our database for station/object N5XJB. If no packets are shown the sender has not sent any weather packets the latest 10 day(s).
| Time | Temp. | Humidity | Pressure | Rain* | Wind** | Luminosity | Snow |
|---|---|---|---|---|---|---|---|
| 1778003068 | 27.22° C | 80% | 1010.4 hPa | 0 mm | - | 279 W/m² | - |
| 1778002764 | 26.67° C | 81% | 1010.7 hPa | 0 mm | - | 259 W/m² | - |
| 1778002460 | 27.22° C | 81% | 1010.4 hPa | 0 mm | - | 101 W/m² | - |
| 1778002158 | 27.22° C | 79% | 1010.4 hPa | 0 mm | - | 155 W/m² | - |
| 1778001856 | 27.22° C | 79% | 1010.4 hPa | 0 mm | - | 155 W/m² | - |
| 1778001555 | 27.22° C | 79% | 1010.4 hPa | 0 mm | - | 246 W/m² | - |
| 1778001252 | 27.78° C | 79% | 1010.7 hPa | 0 mm | - | 234 W/m² | - |
| 1778000949 | 27.22° C | 79% | 1010.7 hPa | 0 mm | - | 295 W/m² | - |
| 1778000646 | 27.22° C | 79% | 1010.7 hPa | 0 mm | - | 371 W/m² | - |
| 1778000341 | 27.22° C | 80% | 1010.7 hPa | 0 mm | - | 235 W/m² | - |
| 1778000037 | 26.67° C | 81% | 1010.7 hPa | 0 mm | - | 286 W/m² | - |
| 1777999732 | 26.67° C | 81% | 1010.7 hPa | 0 mm | - | 267 W/m² | - |
| 1777999429 | 26.11° C | 82% | 1010.7 hPa | 0 mm | - | 220 W/m² | - |
| 1777999128 | 26.11° C | 83% | 1010.7 hPa | 0 mm | - | 224 W/m² | - |
| 1777998826 | 26.11° C | 83% | 1010.7 hPa | 0 mm | - | 209 W/m² | - |
| 1777998524 | 26.11° C | 84% | 1010.7 hPa | 0 mm | - | 172 W/m² | - |
| 1777998220 | 26.11° C | 84% | 1010.7 hPa | 0 mm | - | 130 W/m² | - |
| 1777997918 | 26.11° C | 84% | 1010.4 hPa | 0 mm | - | 135 W/m² | - |
| 1777997614 | 26.11° C | 83% | 1010.7 hPa | 0 mm | - | 90 W/m² | - |
| 1777997311 | 26.11° C | 83% | 1010.7 hPa | 0 mm | - | 133 W/m² | - |
| 1777997010 | 26.11° C | 83% | 1010.4 hPa | 0 mm | - | 172 W/m² | - |
| 1777996705 | 25.56° C | 84% | 1010.7 hPa | 0 mm | - | 265 W/m² | - |
| 1777996401 | 25.56° C | 84% | 1010.4 hPa | 0 mm | - | 163 W/m² | - |
| 1777996098 | 25.56° C | 85% | 1010.4 hPa | 0 mm | - | 216 W/m² | - |
| 1777995789 | 25.56° C | 85% | 1010.4 hPa | 0 mm | - | 182 W/m² | - |
* Rain latest hour (hover to see other rain measurements)
** Current wind speed in m/s (hover to see current wind gust speed)